Location: State Line Observation Field
(36.5320°N, 77.5360°W)
Time: 00:31:51
(UTC-05:00)

Hubble Space Telescope - Visible Passes

Search period start: 12 November 2019 00:00
Search period end: 22 November 2019 00:00
Orbit: 536 x 540 km, 28.5° (Epoch: 10 November)

Date Brightness Start Highest point End Pass type
(mag) Time Alt. Az. Time Alt. Az. Time Alt. Az.
18 Nov 3.2 18:00:53 10° S 18:02:17 11° SSE 18:03:41 10° SE visible
18 Nov 3.7 19:39:32 10° SW 19:40:00 12° SW 19:40:00 12° SW visible
19 Nov 3.1 17:49:26 10° SSW 17:51:34 14° SSE 17:53:42 10° SE visible
19 Nov 3.3 19:28:47 10° SW 19:30:01 16° SW 19:30:01 16° SW visible
20 Nov 3.0 17:38:17 10° SSW 17:40:52 16° SSE 17:43:27 10° SE visible
20 Nov 2.9 19:18:03 10° SW 19:20:03 21° SSW 19:20:03 21° SSW visible
21 Nov 2.9 17:27:18 10° SSW 17:30:11 18° SSE 17:33:04 10° ESE visible
21 Nov 2.5 19:07:22 10° WSW 19:10:04 25° SSW 19:10:04 25° SSW visible
